Time,TemperatureF,DewpointF,PressureIn,WindDirection,WindDirectionDegrees,WindSpeedMPH,WindSpeedGustMPH,Humidity,HourlyPrecipIn,Conditions,Clouds,dailyrainin,SoftwareType,DateUTC
2017-02-23 00:04:00,30.6,29.6,30.12,SSE,158,0.0,0.0,96,0.00,,,0.00,Wunderground v.1.15,2017-02-23 08:04:00,
2017-02-23 00:09:00,30.6,29.6,30.12,SSE,158,0.0,0.0,96,0.00,,,0.00,Wunderground v.1.15,2017-02-23 08:09:00,
2017-02-23 00:14:00,30.6,29.6,30.12,SSE,158,0.0,0.0,96,0.00,,,0.00,Wunderground v.1.15,2017-02-23 08:14:00,
2017-02-23 00:19:00,30.6,29.6,30.12,SSE,158,0.0,0.0,96,0.00,,,0.00,Wunderground v.1.15,2017-02-23 08:19:00,
2017-02-23 00:24:00,30.6,29.6,30.12,SSE,158,0.0,0.0,96,0.00,,,0.00,Wunderground v.1.15,2017-02-23 08:24:00,
2017-02-23 00:29:00,30.6,29.6,30.12,SSE,158,0.0,0.0,96,0.00,,,0.00,Wunderground v.1.15,2017-02-23 08:29:00,
2017-02-23 00:34:00,30.6,29.6,30.12,SSE,158,0.0,0.0,96,0.00,,,0.00,Wunderground v.1.15,2017-02-23 08:34:00,
2017-02-23 00:39:00,30.6,29.6,30.12,SSE,158,0.0,0.0,96,0.00,,,0.00,Wunderground v.1.15,2017-02-23 08:39:00,
2017-02-23 00:44:00,30.5,29.5,30.12,SSE,158,0.0,0.0,96,0.00,,,0.00,Wunderground v.1.15,2017-02-23 08:44:00,
2017-02-23 00:54:00,30.4,29.4,30.12,SSE,158,0.0,0.0,96,0.00,,,0.00,Wunderground v.1.15,2017-02-23 08:54:00,
2017-02-23 00:59:00,30.4,29.4,30.12,SSE,158,0.0,0.0,96,0.00,,,0.00,Wunderground v.1.15,2017-02-23 08:59:00,
2017-02-23 01:04:00,30.5,29.5,30.12,SSE,158,0.0,0.0,96,0.00,,,0.00,Wunderground v.1.15,2017-02-23 09:04:00,
2017-02-23 01:09:00,30.5,29.5,30.12,SSE,158,0.0,0.0,96,0.00,,,0.00,Wunderground v.1.15,2017-02-23 09:09:00,
2017-02-23 01:14:00,30.5,29.5,30.12,SSE,158,0.0,0.0,96,0.00,,,0.00,Wunderground v.1.15,2017-02-23 09:14:00,
2017-02-23 01:19:00,30.6,29.6,30.12,SSE,158,0.0,0.0,96,0.00,,,0.00,Wunderground v.1.15,2017-02-23 09:19:00,
2017-02-23 01:29:00,30.4,29.4,30.12,SSE,158,0.0,0.0,96,0.00,,,0.00,Wunderground v.1.15,2017-02-23 09:29:00,
2017-02-23 01:34:00,30.4,29.4,30.12,SSE,158,0.0,0.0,96,0.00,,,0.00,Wunderground v.1.15,2017-02-23 09:34:00,
2017-02-23 01:39:00,30.4,29.4,30.12,SSE,158,0.0,0.0,96,0.00,,,0.00,Wunderground v.1.15,2017-02-23 09:39:00,
2017-02-23 01:44:00,30.3,29.3,30.12,SSE,158,0.0,0.0,96,0.00,,,0.00,Wunderground v.1.15,2017-02-23 09:44:00,
2017-02-23 01:49:00,30.2,29.2,30.12,SSE,158,0.0,0.0,96,0.00,,,0.00,Wunderground v.1.15,2017-02-23 09:49:00,
2017-02-23 01:54:00,30.2,29.2,30.12,SSE,158,0.0,0.0,96,0.00,,,0.00,Wunderground v.1.15,2017-02-23 09:54:00,
2017-02-23 01:59:00,30.1,29.1,30.13,SSE,157,0.0,1.0,96,0.00,,,0.00,Wunderground v.1.15,2017-02-23 09:59:00,
2017-02-23 02:04:00,30.1,29.1,30.13,SSE,156,0.0,2.0,96,0.00,,,0.00,Wunderground v.1.15,2017-02-23 10:04:00,
2017-02-23 02:14:00,29.4,28.4,30.12,SSE,159,1.0,1.0,96,0.00,,,0.00,Wunderground v.1.15,2017-02-23 10:14:00,
2017-02-23 02:19:00,29.3,28.3,30.12,SSE,158,0.0,0.0,96,0.00,,,0.00,Wunderground v.1.15,2017-02-23 10:19:00,
2017-02-23 02:24:00,29.2,27.9,30.12,SSE,159,0.0,0.0,95,0.00,,,0.00,Wunderground v.1.15,2017-02-23 10:24:00,
2017-02-23 02:29:00,29.1,28.1,30.12,SSE,158,0.0,0.0,96,0.00,,,0.00,Wunderground v.1.15,2017-02-23 10:29:00,
2017-02-23 02:34:00,29.0,28.0,30.12,SSE,158,0.0,0.0,96,0.00,,,0.00,Wunderground v.1.15,2017-02-23 10:34:00,
2017-02-23 02:39:00,28.8,27.8,30.12,SSE,158,0.0,0.0,96,0.00,,,0.00,Wunderground v.1.15,2017-02-23 10:39:00,
2017-02-23 02:44:00,28.8,27.8,30.12,SSE,158,0.0,0.0,96,0.00,,,0.00,Wunderground v.1.15,2017-02-23 10:44:00,
2017-02-23 02:49:00,28.7,27.7,30.12,SSE,158,0.0,1.0,96,0.00,,,0.00,Wunderground v.1.15,2017-02-23 10:49:00,
2017-02-23 02:54:00,28.6,27.6,30.12,SSE,158,0.0,1.0,96,0.00,,,0.00,Wunderground v.1.15,2017-02-23 10:54:00,
2017-02-23 03:04:00,28.6,27.6,30.11,ESE,115,0.0,0.0,96,0.00,,,0.00,Wunderground v.1.15,2017-02-23 11:04:00,
2017-02-23 03:09:00,28.5,27.5,30.11,ESE,115,0.0,0.0,96,0.00,,,0.00,Wunderground v.1.15,2017-02-23 11:09:00,
2017-02-23 03:14:00,28.5,27.5,30.11,ESE,115,0.0,0.0,96,0.00,,,0.00,Wunderground v.1.15,2017-02-23 11:14:00,
2017-02-23 03:19:00,28.5,27.5,30.11,ESE,115,0.0,0.0,96,0.00,,,0.00,Wunderground v.1.15,2017-02-23 11:19:00,
2017-02-23 03:24:00,28.4,27.4,30.12,ESE,115,0.0,0.0,96,0.00,,,0.00,Wunderground v.1.15,2017-02-23 11:24:00,
2017-02-23 03:34:00,28.3,27.3,30.12,ESE,115,0.0,0.0,96,0.00,,,0.00,Wunderground v.1.15,2017-02-23 11:34:00,
2017-02-23 03:39:00,28.4,27.4,30.12,ESE,115,0.0,0.0,96,0.00,,,0.00,Wunderground v.1.15,2017-02-23 11:39:00,
2017-02-23 03:44:00,28.4,27.4,30.12,ESE,115,0.0,0.0,96,0.00,,,0.00,Wunderground v.1.15,2017-02-23 11:44:00,
2017-02-23 03:49:00,28.4,27.4,30.12,ESE,115,0.0,0.0,96,0.00,,,0.00,Wunderground v.1.15,2017-02-23 11:49:00,
2017-02-23 03:54:00,28.4,27.4,30.12,ESE,115,0.0,0.0,96,0.00,,,0.00,Wunderground v.1.15,2017-02-23 11:54:00,
2017-02-23 03:59:00,28.4,27.4,30.11,ESE,115,0.0,0.0,96,0.00,,,0.00,Wunderground v.1.15,2017-02-23 11:59:00,
2017-02-23 04:09:00,28.4,27.2,30.12,ESE,115,0.0,0.0,95,0.00,,,0.00,Wunderground v.1.15,2017-02-23 12:09:00,
2017-02-23 04:14:00,28.4,27.4,30.12,ESE,115,0.0,0.0,96,0.00,,,0.00,Wunderground v.1.15,2017-02-23 12:14:00,
2017-02-23 04:19:00,28.4,27.4,30.12,ESE,115,0.0,0.0,96,0.00,,,0.00,Wunderground v.1.15,2017-02-23 12:19:00,
2017-02-23 04:24:00,28.4,27.4,30.12,ESE,115,0.0,0.0,96,0.00,,,0.00,Wunderground v.1.15,2017-02-23 12:24:00,
2017-02-23 04:29:00,28.4,27.4,30.12,ESE,115,0.0,0.0,96,0.00,,,0.00,Wunderground v.1.15,2017-02-23 12:29:00,
2017-02-23 04:39:00,28.4,27.4,30.12,ESE,115,0.0,0.0,96,0.00,,,0.00,Wunderground v.1.15,2017-02-23 12:39:00,
2017-02-23 04:44:00,28.3,27.3,30.12,ESE,115,0.0,0.0,96,0.00,,,0.00,Wunderground v.1.15,2017-02-23 12:44:00,
2017-02-23 04:49:00,28.3,27.3,30.12,ESE,115,0.0,0.0,96,0.00,,,0.00,Wunderground v.1.15,2017-02-23 12:49:00,
2017-02-23 04:54:00,28.3,27.3,30.12,ESE,115,0.0,0.0,96,0.00,,,0.00,Wunderground v.1.15,2017-02-23 12:54:00,
2017-02-23 04:59:00,28.3,27.3,30.12,ESE,115,0.0,0.0,96,0.00,,,0.00,Wunderground v.1.15,2017-02-23 12:59:00,
2017-02-23 05:04:00,28.2,27.2,30.12,ESE,115,0.0,0.0,96,0.00,,,0.00,Wunderground v.1.15,2017-02-23 13:04:00,
2017-02-23 05:14:00,28.1,27.1,30.13,ESE,115,0.0,0.0,96,0.00,,,0.00,Wunderground v.1.15,2017-02-23 13:14:00,
2017-02-23 05:19:00,28.0,27.0,30.12,ESE,115,0.0,0.0,96,0.00,,,0.00,Wunderground v.1.15,2017-02-23 13:19:00,
2017-02-23 05:24:00,27.9,26.7,30.13,ESE,115,0.0,0.0,95,0.00,,,0.00,Wunderground v.1.15,2017-02-23 13:24:00,
2017-02-23 05:29:00,27.9,26.7,30.13,ESE,115,0.0,0.0,95,0.00,,,0.00,Wunderground v.1.15,2017-02-23 13:29:00,
2017-02-23 05:34:00,27.9,26.7,30.13,ESE,115,0.0,0.0,95,0.00,,,0.00,Wunderground v.1.15,2017-02-23 13:34:00,
2017-02-23 05:44:00,27.9,26.9,30.13,ESE,115,0.0,0.0,96,0.00,,,0.00,Wunderground v.1.15,2017-02-23 13:44:00,
2017-02-23 05:49:00,27.9,26.9,30.14,ESE,115,0.0,0.0,96,0.00,,,0.00,Wunderground v.1.15,2017-02-23 13:49:00,
2017-02-23 05:54:00,27.8,26.8,30.14,ESE,115,0.0,0.0,96,0.00,,,0.00,Wunderground v.1.15,2017-02-23 13:54:00,
2017-02-23 05:59:00,27.7,26.7,30.13,ESE,115,0.0,0.0,96,0.00,,,0.00,Wunderground v.1.15,2017-02-23 13:59:00,
2017-02-23 06:04:00,27.6,26.6,30.13,ESE,115,0.0,0.0,96,0.00,,,0.00,Wunderground v.1.15,2017-02-23 14:04:00,
2017-02-23 06:09:00,27.5,26.3,30.13,ESE,115,0.0,0.0,95,0.00,,,0.00,Wunderground v.1.15,2017-02-23 14:09:00,
2017-02-23 06:19:00,27.4,26.4,30.14,ESE,115,0.0,0.0,96,0.00,,,0.00,Wunderground v.1.15,2017-02-23 14:19:00,
2017-02-23 06:24:00,27.4,26.4,30.14,ESE,115,0.0,0.0,96,0.00,,,0.00,Wunderground v.1.15,2017-02-23 14:24:00,
2017-02-23 06:29:00,27.4,26.4,30.14,ESE,115,0.0,0.0,96,0.00,,,0.00,Wunderground v.1.15,2017-02-23 14:29:00,
2017-02-23 06:34:00,27.4,26.4,30.14,ESE,115,0.0,0.0,96,0.00,,,0.00,Wunderground v.1.15,2017-02-23 14:34:00,
2017-02-23 06:39:00,27.4,26.4,30.14,ESE,115,0.0,0.0,96,0.00,,,0.00,Wunderground v.1.15,2017-02-23 14:39:00,
2017-02-23 06:49:00,27.4,26.4,30.14,ESE,115,0.0,0.0,96,0.00,,,0.00,Wunderground v.1.15,2017-02-23 14:49:00,
2017-02-23 06:54:00,27.5,26.5,30.15,ESE,115,0.0,0.0,96,0.00,,,0.00,Wunderground v.1.15,2017-02-23 14:54:00,
2017-02-23 06:59:00,27.5,26.5,30.15,ESE,115,0.0,0.0,96,0.00,,,0.00,Wunderground v.1.15,2017-02-23 14:59:00,
2017-02-23 07:04:00,27.6,26.6,30.16,ESE,115,0.0,0.0,96,0.00,,,0.00,Wunderground v.1.15,2017-02-23 15:04:00,
2017-02-23 07:09:00,27.8,27.1,30.16,ESE,115,0.0,0.0,97,0.00,,,0.00,Wunderground v.1.15,2017-02-23 15:09:00,
2017-02-23 07:14:00,27.9,27.2,30.16,ESE,115,0.0,0.0,97,0.00,,,0.00,Wunderground v.1.15,2017-02-23 15:14:00,
2017-02-23 07:19:00,28.0,27.3,30.16,ESE,115,0.0,0.0,97,0.00,,,0.00,Wunderground v.1.15,2017-02-23 15:19:00,
2017-02-23 07:24:00,28.1,27.4,30.16,ESE,115,0.0,0.0,97,0.00,,,0.00,Wunderground v.1.15,2017-02-23 15:24:00,
2017-02-23 07:29:00,28.1,27.4,30.16,ESE,115,0.0,0.0,97,0.00,,,0.00,Wunderground v.1.15,2017-02-23 15:29:00,
2017-02-23 07:34:00,28.2,27.5,30.17,ESE,115,0.0,0.0,97,0.00,,,0.00,Wunderground v.1.15,2017-02-23 15:34:00,
2017-02-23 07:39:00,28.3,27.6,30.17,ESE,115,0.0,0.0,97,0.00,,,0.00,Wunderground v.1.15,2017-02-23 15:39:00,
2017-02-23 07:44:00,28.3,27.6,30.17,ESE,115,0.0,0.0,97,0.00,,,0.00,Wunderground v.1.15,2017-02-23 15:44:00,
2017-02-23 07:54:00,28.6,27.9,30.17,ESE,115,0.0,1.0,97,0.00,,,0.00,Wunderground v.1.15,2017-02-23 15:54:00,
2017-02-23 07:59:00,29.0,28.3,30.18,ESE,115,0.0,0.0,97,0.00,,,0.00,Wunderground v.1.15,2017-02-23 15:59:00,
2017-02-23 08:04:00,29.3,28.6,30.18,ESE,115,0.0,0.0,97,0.00,,,0.00,Wunderground v.1.15,2017-02-23 16:04:00,
2017-02-23 08:09:00,29.6,28.9,30.18,ESE,115,0.0,0.0,97,0.00,,,0.00,Wunderground v.1.15,2017-02-23 16:09:00,
2017-02-23 08:14:00,29.8,29.1,30.18,ESE,115,0.0,0.0,97,0.00,,,0.00,Wunderground v.1.15,2017-02-23 16:14:00,
2017-02-23 08:24:00,29.8,28.8,30.19,ESE,116,1.0,1.0,96,0.00,,,0.00,Wunderground v.1.15,2017-02-23 16:24:00,
2017-02-23 08:29:00,29.9,28.9,30.19,ESE,117,1.0,1.0,96,0.00,,,0.00,Wunderground v.1.15,2017-02-23 16:29:00,
2017-02-23 08:34:00,29.7,28.7,30.19,ESE,120,1.0,1.0,96,0.00,,,0.00,Wunderground v.1.15,2017-02-23 16:34:00,
2017-02-23 08:39:00,29.9,28.9,30.19,ESE,120,1.0,1.0,96,0.00,,,0.00,Wunderground v.1.15,2017-02-23 16:39:00,
2017-02-23 08:44:00,30.1,29.1,30.19,SE,132,1.0,1.0,96,0.00,,,0.00,Wunderground v.1.15,2017-02-23 16:44:00,
2017-02-23 08:49:00,30.1,28.8,30.19,SE,133,1.0,1.0,95,0.00,,,0.00,Wunderground v.1.15,2017-02-23 16:49:00,
2017-02-23 08:59:00,30.4,29.4,30.19,SE,133,0.0,0.0,96,0.00,,,0.00,Wunderground v.1.15,2017-02-23 16:59:00,
2017-02-23 09:04:00,30.5,29.2,30.19,SE,133,0.0,0.0,95,0.00,,,0.00,Wunderground v.1.15,2017-02-23 17:04:00,
2017-02-23 09:09:00,30.6,29.3,30.19,SE,133,0.0,0.0,95,0.00,,,0.00,Wunderground v.1.15,2017-02-23 17:09:00,
2017-02-23 09:14:00,30.8,29.5,30.19,SE,133,0.0,0.0,95,0.00,,,0.00,Wunderground v.1.15,2017-02-23 17:14:00,
2017-02-23 09:19:00,30.9,29.6,30.19,SE,133,0.0,0.0,95,0.00,,,0.01,Wunderground v.1.15,2017-02-23 17:19:00,
2017-02-23 09:29:00,31.1,29.3,30.19,SE,133,0.0,0.0,93,0.00,,,0.01,Wunderground v.1.15,2017-02-23 17:29:00,
2017-02-23 09:34:00,31.3,29.5,30.19,SE,133,0.0,0.0,93,0.00,,,0.01,Wunderground v.1.15,2017-02-23 17:34:00,
2017-02-23 09:39:00,31.6,29.8,30.19,SE,133,0.0,0.0,93,0.00,,,0.01,Wunderground v.1.15,2017-02-23 17:39:00,
2017-02-23 09:44:00,32.2,30.4,30.19,SSE,153,0.0,0.0,93,0.00,,,0.01,Wunderground v.1.15,2017-02-23 17:44:00,
2017-02-23 09:49:00,33.0,30.9,30.19,SSE,167,1.0,5.0,92,0.00,,,0.01,Wunderground v.1.15,2017-02-23 17:49:00,
2017-02-23 09:54:00,33.1,30.2,30.19,SSE,167,1.0,5.0,89,0.00,,,0.01,Wunderground v.1.15,2017-02-23 17:54:00,
2017-02-23 10:04:00,33.3,30.7,30.20,SSE,167,0.0,1.0,90,0.00,,,0.01,Wunderground v.1.15,2017-02-23 18:04:00,
2017-02-23 10:09:00,33.0,30.1,30.20,SSE,167,0.0,1.0,89,0.00,,,0.01,Wunderground v.1.15,2017-02-23 18:09:00,
2017-02-23 10:14:00,32.8,29.9,30.20,SSE,167,0.0,1.0,89,0.00,,,0.01,Wunderground v.1.15,2017-02-23 18:14:00,
2017-02-23 10:19:00,32.6,29.7,30.20,SSE,167,0.0,1.0,89,0.00,,,0.01,Wunderground v.1.15,2017-02-23 18:19:00,
2017-02-23 10:24:00,32.4,29.5,30.20,SSE,167,1.0,1.0,89,0.00,,,0.01,Wunderground v.1.15,2017-02-23 18:24:00,
2017-02-23 10:29:00,32.4,29.8,30.20,SSE,167,0.0,0.0,90,0.00,,,0.01,Wunderground v.1.15,2017-02-23 18:29:00,
2017-02-23 10:34:00,32.4,29.8,30.20,SSE,167,0.0,2.0,90,0.00,,,0.01,Wunderground v.1.15,2017-02-23 18:34:00,
2017-02-23 10:44:00,32.3,30.0,30.19,SSE,167,1.0,1.0,91,0.00,,,0.01,Wunderground v.1.15,2017-02-23 18:44:00,
2017-02-23 10:49:00,32.5,29.9,30.19,SSE,154,1.0,2.0,90,0.00,,,0.01,Wunderground v.1.15,2017-02-23 18:49:00,
2017-02-23 10:54:00,33.1,30.8,30.19,SE,146,2.0,2.0,91,0.00,,,0.01,Wunderground v.1.15,2017-02-23 18:54:00,
2017-02-23 10:59:00,34.0,31.6,30.19,SE,143,2.0,2.0,91,0.00,,,0.01,Wunderground v.1.15,2017-02-23 18:59:00,
2017-02-23 11:04:00,34.6,31.4,30.19,SSE,149,2.0,2.0,88,0.00,,,0.01,Wunderground v.1.15,2017-02-23 19:04:00,
2017-02-23 11:09:00,34.9,30.8,30.19,West,263,2.0,2.0,85,0.00,,,0.01,Wunderground v.1.15,2017-02-23 19:09:00,
2017-02-23 11:14:00,34.7,30.4,30.19,NW,315,1.0,2.0,84,0.00,,,0.01,Wunderground v.1.15,2017-02-23 19:14:00,
2017-02-23 11:19:00,34.1,29.8,30.19,ESE,103,1.0,2.0,84,0.00,,,0.02,Wunderground v.1.15,2017-02-23 19:19:00,
2017-02-23 11:24:00,33.6,29.9,30.19,ESE,103,1.0,2.0,86,0.00,,,0.02,Wunderground v.1.15,2017-02-23 19:24:00,
2017-02-23 11:29:00,33.3,30.1,30.19,ESE,103,0.0,2.0,88,0.00,,,0.02,Wunderground v.1.15,2017-02-23 19:29:00,
2017-02-23 11:39:00,32.8,29.6,30.19,ESE,103,0.0,0.0,88,0.00,,,0.02,Wunderground v.1.15,2017-02-23 19:39:00,
2017-02-23 11:44:00,32.8,29.9,30.19,ESE,103,0.0,1.0,89,0.00,,,0.02,Wunderground v.1.15,2017-02-23 19:44:00,
2017-02-23 11:49:00,33.3,30.7,30.19,SE,146,1.0,4.0,90,0.00,,,0.02,Wunderground v.1.15,2017-02-23 19:49:00,
2017-02-23 11:54:00,34.0,30.3,30.18,SE,144,3.0,4.0,86,0.00,,,0.02,Wunderground v.1.15,2017-02-23 19:54:00,
2017-02-23 11:59:00,34.7,30.1,30.18,SE,145,4.0,4.0,83,0.00,,,0.02,Wunderground v.1.15,2017-02-23 19:59:00,
2017-02-23 12:09:00,35.2,30.9,30.18,SE,144,0.0,0.0,84,0.00,,,0.02,Wunderground v.1.15,2017-02-23 20:09:00,
2017-02-23 12:14:00,35.2,30.9,30.18,SE,144,0.0,0.0,84,0.00,,,0.02,Wunderground v.1.15,2017-02-23 20:14:00,
2017-02-23 12:19:00,35.0,30.4,30.18,SE,144,0.0,0.0,83,0.00,,,0.02,Wunderground v.1.15,2017-02-23 20:19:00,
2017-02-23 12:24:00,34.6,29.1,30.18,SSE,149,1.0,2.0,80,0.00,,,0.02,Wunderground v.1.15,2017-02-23 20:24:00,
2017-02-23 12:29:00,34.5,29.9,30.17,SSE,148,1.0,2.0,83,0.00,,,0.02,Wunderground v.1.15,2017-02-23 20:29:00,
2017-02-23 12:34:00,34.9,30.0,30.17,SSE,148,1.0,2.0,82,0.00,,,0.02,Wunderground v.1.15,2017-02-23 20:34:00,
2017-02-23 12:44:00,35.3,28.2,30.17,SSE,148,1.0,2.0,75,0.00,,,0.02,Wunderground v.1.15,2017-02-23 20:44:00,
2017-02-23 12:49:00,35.1,29.2,30.17,SSE,148,1.0,1.0,79,0.00,,,0.02,Wunderground v.1.15,2017-02-23 20:49:00,
2017-02-23 12:54:00,35.1,29.6,30.17,SSE,148,0.0,1.0,80,0.00,,,0.02,Wunderground v.1.15,2017-02-23 20:54:00,
2017-02-23 12:59:00,34.9,29.4,30.17,SSE,155,0.0,1.0,80,0.00,,,0.02,Wunderground v.1.15,2017-02-23 20:59:00,
2017-02-23 13:04:00,34.3,29.4,30.17,East,101,1.0,4.0,82,0.00,,,0.02,Wunderground v.1.15,2017-02-23 21:04:00,
2017-02-23 13:14:00,31.9,29.0,30.18,East,80,3.0,5.0,89,0.00,,,0.02,Wunderground v.1.15,2017-02-23 21:14:00,
2017-02-23 13:19:00,31.1,28.5,30.18,ENE,63,3.0,3.0,90,0.00,,,0.02,Wunderground v.1.15,2017-02-23 21:19:00,
2017-02-23 13:24:00,30.6,28.3,30.18,NNE,31,2.0,3.0,91,0.00,,,0.02,Wunderground v.1.15,2017-02-23 21:24:00,
2017-02-23 13:29:00,30.3,28.0,30.18,NE,44,2.0,2.0,91,0.00,,,0.02,Wunderground v.1.15,2017-02-23 21:29:00,
2017-02-23 13:34:00,30.0,28.0,30.18,ENE,67,2.0,2.0,92,0.00,,,0.02,Wunderground v.1.15,2017-02-23 21:34:00,